Weather History for Redmond, OR

Change the Weather History Date:

Saturday, October 8, 2011

  Actual Average Record
Temperature  
Mean Temperature 48 °F 50 °F  
Max Temperature 69 °F 67 °F 87 °F (1988)
Min Temperature 27 °F 33 °F 17 °F (1961)
Degree Days  
Heating Degree Days 17 15  
Month to date heating degree days 133 111  
Since 1 July heating degree days 403 510  
Cooling Degree Days 0 0  
Month to date cooling degree days 0 0  
Year to date cooling degree days 155 222  
Moisture  
Dew Point 33 °F    
Average Humidity 63    
Maximum Humidity 100    
Minimum Humidity 26    
Precipitation  
Precipitation 0.00 in 0.02 in 0.41 in (1983)
Month to date precipitation 0.10 0.13  
Year to date precipitation 5.47 6.27  
Sea Level Pressure  
Sea Level Pressure 30.18 in    
Wind  
Wind Speed 4 mph (SSE)    
Max Wind Speed 12 mph    
Max Gust Speed 17 mph    
Visibility 10 miles    
Events      
T = Trace of Precipitation, MM = Missing Value Source: NWS Daily Summary

Daily Weather History Graph

Daily Weather History Graph

Search for Another Location

Airport:

Trip Planner

Search our weather history database for the weather conditions in past years. The results will help you decide how hot, cold, wet, or windy it might be!

Date:

Astronomy

Oct. 08, 2011 Rise Set
Actual Time 7:10 AM PDT 6:32 PM PDT
Civil Twilight 6:41 AM PDT 7:01 PM PDT
Nautical Twilight 6:08 AM PDT 7:35 PM PDT
Astronomical Twilight 5:34 AM PDT 8:09 PM PDT
Moon 4:50 PM PDT (10/8) 3:57 AM PDT (10/8)
Length of Visible Light 12h 20m
Length of Day
11h 22m
Waxing Gibbous, 90% of the Moon is Illuminated
Oct 8
Waxing Gibbous
Oct 11
Full
Oct 19
Last Quarter
Oct 26
New
Nov 2
First Quarter

Hourly Weather History & Observations

Time (PDT) Temp. Windchill Dew Point Humidity Pressure Visibility Wind Dir Wind Speed Gust Speed Precip Events Conditions
12:56 AM 36.0 °F 31.1 °F 34.0 °F 93% 30.23 in 10.0 mi South 5.8 mph - N/A   Clear
1:56 AM 33.1 °F 26.9 °F 32.0 °F 96% 30.24 in 10.0 mi South 6.9 mph - N/A   Clear
2:56 AM 35.1 °F 30.1 °F 33.1 °F 92% 30.24 in 10.0 mi South 5.8 mph - N/A   Clear
3:56 AM 32.0 °F 28.7 °F 30.9 °F 96% 30.24 in 10.0 mi East 3.5 mph - N/A   Clear
4:56 AM 32.0 °F 26.4 °F 30.9 °F 96% 30.24 in 10.0 mi SSE 5.8 mph - N/A   Clear
5:56 AM 33.1 °F 30.0 °F 32.0 °F 96% 30.25 in 10.0 mi SE 3.5 mph - N/A   Clear
6:56 AM 30.9 °F - 30.0 °F 96% 30.26 in 10.0 mi Calm Calm - N/A   Clear
7:56 AM 36.0 °F - 34.0 °F 93% 30.26 in 10.0 mi Calm Calm - N/A   Clear
8:56 AM 42.1 °F 40.2 °F 37.0 °F 82% 30.27 in 10.0 mi SE 3.5 mph - N/A   Clear
9:56 AM 48.2 °F - 37.4 °F 66% 30.23 in 10.0 mi East 4.6 mph - N/A   Clear
10:56 AM 55.0 °F - 37.9 °F 53% 30.22 in 10.0 mi Variable 6.9 mph - N/A   Clear
11:56 AM 59.0 °F - 36.0 °F 42% 30.19 in 10.0 mi Variable 5.8 mph - N/A   Clear
12:56 PM 63.0 °F - 34.0 °F 34% 30.16 in 10.0 mi South 5.8 mph - N/A   Clear
1:56 PM 66.0 °F - 34.0 °F 30% 30.13 in 10.0 mi NNE 5.8 mph - N/A   Clear
2:56 PM 66.0 °F - 30.0 °F 26% 30.12 in 10.0 mi SW 4.6 mph - N/A   Clear
3:56 PM 66.9 °F - 30.9 °F 26% 30.11 in 10.0 mi Variable 4.6 mph - N/A   Clear
4:56 PM 66.9 °F - 32.0 °F 27% 30.10 in 10.0 mi NNW 4.6 mph - N/A   Clear
5:56 PM 66.0 °F - 32.0 °F 28% 30.09 in 10.0 mi North 5.8 mph - N/A   Clear
6:56 PM 57.9 °F - 33.1 °F 39% 30.11 in 10.0 mi NNW 5.8 mph - N/A   Clear
7:56 PM 53.1 °F - 34.0 °F 48% 30.12 in 10.0 mi Calm Calm - N/A   Clear
8:56 PM 51.8 °F - 37.4 °F 58% 30.11 in 10.0 mi WNW 5.8 mph - N/A   Clear
9:56 PM 41.0 °F 38.0 °F 33.1 °F 73% 30.13 in 10.0 mi South 4.6 mph - N/A   Clear
10:56 PM 41.0 °F - 33.1 °F 73% 30.12 in 10.0 mi Calm Calm - N/A   Clear
11:56 PM 39.0 °F 36.8 °F 33.1 °F 79% 30.12 in 10.0 mi South 3.5 mph - N/A   Clear